Flag for Cuba Weather past 2 weeks in Camagüey, Cuba

Now
79 °F

Passing clouds.


Feels Like: 82 °F
Forecast: 73 / 86 °F
Wind: 6 mph from East

Location: Camaguey Aeropuerto

Current Time: Aug 29, 2015 at 3:26:18 AM

Latest Report: Aug 29, 2015 at 2:50 AM


Visibility: 6 mi

Pressure: 30.01 "Hg

Humidity: 84%

Dew point: 73 °F

Location of CamagüeyLocation

Historic Weather in Camagüey — Graph

°F

Camagüey temperature yesterday

Maximum temperature yesterday: 93 °F (at 2:51 PM)
Minimum temperature yesterday: 77 °F (at 12:51 AM)
Average temperature yesterday: 83 °F

Past Weeks' High & Low Weather Summary

 TemperatureHumidityPressure
High95 °F (Aug 20, 3:53 PM)94% (Aug 16, 7:50 AM)30.01 "Hg (Aug 16, 7:50 AM)
Low72 °F (Aug 14, 1:50 AM)32% (Aug 23, 2:50 PM)29.98 "Hg (Aug 14, 1:50 AM)
Average81 °F72%29.99 "Hg
* Reported Aug 14 1:50 AM — Aug 29 1:50 AM, Camagüey, Weather by CustomWeather, © 2015

Note: Actual official high and low records may vary slightly from our data, if they occured in-between our weather recording intervals... More about our weather records

Advertising

Camagüey weather history for previous 24 hours

 ConditionsComfort  
Time TempWeatherWind HumidityBarometerVisibility
1:50 AM
Sat, Aug 29
79 °FPassing clouds.7 mph84%30.01 "Hg6 mi
12:50 AM79 °FPassing clouds.10 mph84%30.01 "Hg6 mi
11:50 PM
Fri, Aug 28
81 °FPassing clouds.12 mph79%30.01 "Hg6 mi
10:50 PM81 °FPassing clouds.13 mph79%30.01 "Hg6 mi
9:50 PM81 °FPassing clouds.12 mph79%30.01 "Hg6 mi
8:50 PM82 °FPassing clouds.10 mph74%30.01 "Hg6 mi
7:50 PM82 °FPassing clouds.14 mph74%30.01 "Hg6 mi
6:50 PM86 °FScattered clouds.17 mph66%30.01 "Hg6 mi
5:50 PM88 °FScattered clouds.22 mph59%30.01 "Hg6 mi
4:50 PM90 °FScattered clouds.22 mph55%30.01 "Hg6 mi
3:50 PM91 °FScattered clouds.21 mph52%30.01 "Hg6 mi
2:51 PM93 °FScattered clouds.18 mph47%30.01 "Hg6 mi
1:52 PM91 °FScattered clouds.18 mph49%30.01 "Hg6 mi
12:50 PM91 °FScattered clouds.18 mph49%30.01 "Hg6 mi
11:53 AM90 °FScattered clouds.16 mph52%30.01 "Hg6 mi
10:53 AM88 °FScattered clouds.16 mph59%30.01 "Hg6 mi
9:51 AM84 °FScattered clouds.15 mph70%30.01 "Hg6 mi
8:53 AM81 °FPassing clouds.12 mph79%30.01 "Hg6 mi
7:51 AM77 °FFog.6 mph89%30.01 "Hg4 mi
6:53 AM77 °FFog.6 mph89%30.01 "Hg3 mi
5:53 AM77 °FFog.5 mph89%30.01 "Hg4 mi
4:52 AM77 °FPassing clouds.5 mph89%30.01 "Hg6 mi
3:51 AM77 °FPassing clouds.6 mph89%30.01 "Hg6 mi
Weather by CustomWeather, © 2015

See weather overviewHow to use our weather pages